#timestamp,LO_Frequency,Hit,StdDev 
1653094815.5,286047001.5,N
1653094835.3,286047000.3,N
1653094855.2,286047000.5,N
1653094875.0,286046999.9,N
1653094875.9,286047002.2,N
1653094895.8,286047005.3,N
1653094915.6,286047005.8,N
1653094935.4,286047001.8,N
1653094955.3,286047002.0,N
1653094975.1,286047002.1,N
1653094995.9,286047005.1,N
1653095015.7,286047005.3,N
1653095035.5,286047003.1,N
1653095055.4,286047009.7,N
1653095075.2,286047008.3,N
1653095095.0,286047010.1,N
1653095095.9,286047010.6,N
1653095115.8,286047010.3,N
1653095135.6,286047007.7,N
1653095155.5,286047015.5,Y
1653095175.3,286047010.1,P
1653095195.1,286047013.9,P
1653095215.9,286047014.0,P
1653095235.7,286047016.3,Y
1653095255.5,286047009.2,P
1653095275.4,286047007.1,P
1653095295.2,286047006.4,P
1653095315.1,286047010.4,Y
1653095316.0,286047009.6,P
1653095335.8,286047005.9,P
1653095355.6,286047005.6,P
1653095375.5,286047002.9,N
1653095395.3,286047007.2,Y
1653095415.2,286046999.1,P
1653095435.9,286046998.6,N
1653095455.7,286047001.5,N
1653095475.6,286047006.3,N
1653095495.4,286047005.1,N
1653095515.2,286047006.5,N
1653095535.1,286047006.4,N
1653095536.0,286047004.7,N
1653095555.8,286047001.6,N
1653095575.7,286047001.7,N
1653095595.5,286047006.6,N
1653095615.3,286047004.8,N
1653095635.2,286047009.2,Y
1653095655.0,286047001.9,P
1653095655.9,286047000.5,N
1653095675.8,286046995.3,P
1653095695.6,286046997.5,N
1653095715.4,286046998.1,N
1653095735.3,286046996.0,N
1653095755.1,286046994.6,N
1653095775.8,286046993.5,N
1653095795.7,286046996.4,N
1653095815.5,286046995.9,N
1653095835.4,286046995.8,N
1653095855.2,286046992.0,N
1653095875.0,286046990.4,Y
1653095875.9,286046994.3,P
1653095895.8,286046993.3,P
1653095915.6,286046996.4,N
1653095935.5,286046990.1,Y
1653095955.3,286046992.1,P
1653095975.1,286046993.9,P
1653095995.9,286046995.2,P
1653096015.7,286046992.1,Y
1653096035.5,286046995.0,P
1653096055.4,286046992.5,P
1653096075.2,286046990.6,P
1653096095.1,286046991.5,Y
1653096096.0,286046989.1,P
1653096115.8,286046998.4,N
1653096135.6,286047002.8,N
1653096155.5,286047002.5,N
1653096175.3,286047002.8,N
1653096195.1,286047005.0,N
1653096215.9,286047002.9,N
1653096235.7,286047003.2,N
1653096255.6,286047004.4,N
1653096275.4,286046999.0,N
1653096295.2,286046999.1,N
1653096315.1,286046998.7,N
1653096316.0,286047000.7,N
1653096335.8,286046997.8,N
1653096355.7,286046994.8,N
1653096375.5,286046990.5,N
1653096395.3,286046992.0,N
1653096415.2,286046996.2,N
1653096435.9,286046998.0,N
1653096455.7,286046993.4,N
1653096475.6,286046993.4,N
1653096495.4,286046992.5,N
1653096515.3,286046992.8,N
1653096535.1,286046993.8,N
1653096536.0,286046996.3,N
1653096555.8,286046992.0,N
1653096575.7,286046988.8,N
1653096595.5,286046989.6,N
1653096615.3,286046988.0,N
1653096635.2,286046985.9,N
1653096655.0,286046988.3,N
1653096655.9,286046988.8,N
1653096675.8,286046990.9,N
1653096695.6,286046991.5,N
1653096715.4,286046988.8,N
1653096735.3,286046989.2,N
1653096755.1,286046989.0,N
1653096775.8,286046993.4,N
1653096795.7,286046997.4,N
1653096815.5,286046999.2,N
1653096835.4,286046997.8,N
1653096855.2,286046996.7,N
1653096875.0,286046999.2,N
1653096875.9,286046996.9,N
1653096895.8,286046997.8,N
1653096915.6,286046999.7,N
1653096935.5,286047002.9,N
1653096955.3,286047010.0,N
1653096975.1,286047008.0,N
1653096995.9,286047004.8,N
1653097015.7,286047003.4,N
1653097035.5,286047007.5,N
1653097055.4,286047013.8,N
1653097075.2,286047011.0,N
1653097095.1,286047009.4,N
1653097096.0,286047010.6,N
1653097115.8,286047008.1,N
1653097135.6,286047009.6,N
1653097155.5,286047011.0,N
1653097175.3,286047008.2,N
1653097195.2,286047007.4,N
1653097215.9,286047006.0,N
1653097235.7,286047011.5,N
1653097255.6,286047021.6,N
1653097275.4,286047016.4,N
1653097295.2,286047016.0,N
1653097315.1,286047014.3,N
1653097316.0,286047014.3,N
1653097335.8,286047012.5,N
1653097355.7,286047013.8,N
1653097375.5,286047009.7,N
1653097395.3,286047015.0,N
1653097415.2,286047014.7,N
1653097435.0,286047013.8,N
1653097435.9,286047011.7,N
1653097455.8,286047013.6,Y
1653097475.6,286046999.8,P
1653097495.4,286046997.4,N
1653097515.3,286046996.1,N
1653097535.1,286046994.4,N
1653097536.0,286046993.1,N
1653097555.8,286046989.1,N
1653097575.7,286046986.0,N
1653097595.5,286046982.5,N
1653097615.4,286046983.4,N
1653097635.2,286046981.6,N
1653097655.0,286046981.0,N
1653097655.9,286046982.2,N
1653097675.8,286046983.4,N
1653097695.6,286046982.9,N
1653097715.4,286046982.2,N
1653097735.3,286046979.4,N
1653097755.1,286046977.7,N
1653097775.9,286046979.0,N
1653097795.7,286046980.1,N
1653097815.5,286046980.0,N
1653097835.4,286046980.3,N
1653097855.2,286046977.6,N
1653097875.0,286046978.3,N
1653097875.9,286046978.7,N
1653097895.8,286046983.6,N
1653097915.6,286046988.6,N
1653097935.5,286046994.2,N
1653097955.3,286046994.5,N
1653097975.1,286046994.0,N
1653097995.9,286046991.8,N
1653098015.7,286046990.8,N
1653098035.5,286046993.8,N
1653098055.4,286046994.0,N
1653098075.2,286046995.5,N
1653098095.1,286047000.7,N
1653098096.0,286047002.2,N
1653098115.8,286047006.3,N
1653098135.6,286047010.7,N
1653098155.5,286047010.7,N
1653098175.3,286047010.8,N
1653098195.1,286047010.8,N
1653098215.9,286047013.0,N
1653098235.7,286047013.2,N
1653098255.6,286047013.8,N
1653098275.4,286047011.2,N
1653098295.2,286047016.1,N
1653098315.1,286047018.0,N
1653098316.0,286047019.9,N
1653098335.8,286047015.9,N
1653098355.6,286047012.5,N
1653098375.5,286047012.4,N
1653098395.3,286047010.8,N
